TimeCST,TemperatureF,Dew PointF,Humidity,Sea Level PressureIn,VisibilityMPH,Wind Direction,Wind SpeedMPH,Gust SpeedMPH,PrecipitationIn,Events,Conditions,WindDirDegrees,DateUTC
12:52 AM,28.0,24.1,85,30.00,7.0,NE,6.9,-,N/A,,Clear,40,2012-11-30 06:52:00
1:52 AM,27.0,23.0,85,30.01,6.0,NNE,9.2,-,N/A,,Clear,20,2012-11-30 07:52:00
2:52 AM,26.1,23.0,88,30.03,6.0,NNE,6.9,-,N/A,,Clear,20,2012-11-30 08:52:00
3:52 AM,26.1,23.0,88,30.04,6.0,North,6.9,-,N/A,,Clear,10,2012-11-30 09:52:00
4:52 AM,25.0,21.9,88,30.07,6.0,North,6.9,-,N/A,,Clear,350,2012-11-30 10:52:00
5:52 AM,24.1,21.0,88,30.07,5.0,NNE,8.1,-,N/A,,Clear,20,2012-11-30 11:52:00
6:52 AM,23.0,19.9,88,30.09,5.0,North,10.4,-,N/A,,Clear,10,2012-11-30 12:52:00
7:52 AM,23.0,19.9,88,30.11,3.0,North,8.1,-,N/A,,Clear,360,2012-11-30 13:52:00
8:52 AM,28.0,24.1,85,30.13,4.0,NNE,8.1,-,N/A,,Clear,20,2012-11-30 14:52:00
9:52 AM,32.0,28.0,85,30.12,4.0,ENE,11.5,-,N/A,,Clear,60,2012-11-30 15:52:00
10:52 AM,36.0,28.9,76,30.15,5.0,East,4.6,-,N/A,,Haze,80,2012-11-30 16:52:00
11:52 AM,39.0,30.0,70,30.13,5.0,ENE,9.2,-,N/A,,Haze,70,2012-11-30 17:52:00
12:52 PM,41.0,30.9,67,30.12,6.0,East,4.6,-,N/A,,Haze,80,2012-11-30 18:52:00
1:52 PM,41.0,30.9,67,30.09,5.0,East,8.1,-,N/A,,Haze,80,2012-11-30 19:52:00
2:52 PM,43.0,32.0,65,30.09,6.0,East,8.1,-,N/A,,Haze,100,2012-11-30 20:52:00
4:52 PM,35.1,28.0,76,30.10,4.0,East,5.8,-,N/A,,Haze,90,2012-11-30 22:52:00
5:52 PM,32.0,27.0,82,30.09,5.0,East,9.2,-,N/A,,Haze,100,2012-11-30 23:52:00
6:52 PM,33.1,28.9,85,30.09,4.0,ESE,11.5,-,N/A,,Clear,120,2012-12-01 00:52:00
7:52 PM,33.1,30.0,89,30.07,3.0,SE,13.8,-,N/A,,Clear,130,2012-12-01 01:52:00
8:52 PM,30.9,28.9,92,30.06,2.5,SE,10.4,-,N/A,,Clear,140,2012-12-01 02:52:00
9:52 PM,30.9,28.9,92,30.06,2.5,SE,12.7,-,N/A,,Clear,140,2012-12-01 03:52:00
10:15 PM,30.2,28.4,93,30.00,2.5,SE,11.5,-,N/A,,Partly Cloudy,140,2012-12-01 04:15:00
10:52 PM,30.9,30.0,96,30.05,2.5,SSE,11.5,-,N/A,,Scattered Clouds,160,2012-12-01 04:52:00
11:52 PM,32.0,30.0,92,30.04,2.5,SSE,11.5,-,N/A,,Partly Cloudy,160,2012-12-01 05:52:00